Miscellaneous Local Product
Issued by NWS Hastings, NE

Home | Current Version | Previous Version | Text Only | Print | Product List | Glossary On
Versions: 1 2 3 4 5 6 7 8 9 10 11 12 13 14 15 16 17 18 19 20 21 22 23 24 25 26 27 28 29 30 31 32 33 34 35 36 37 38 39 40 41 42 43 44 45 46 47 48 49 50
000
AXUS43 KGID 022202
MISGRI

GID CWA HOURLY WEATHER ROUNDUP
NATIONAL WEATHER SERVICE HASTINGS NE
500 PM CDT SUN AUG 02 2015

NOTE: "FAIR" INDICATES FEW OR NO CLOUDS BELOW 12,000 FEET WITH NO
SIGNIFICANT WEATHER AND/OR OBSTRUCTIONS TO VISIBILITY.

...SOUTH CENTRAL NEBRASKA...

CITY           SKY/WX    TMP DP  RH WIND       PRES   REMARKS
GRAND ISLAND   PTSUNNY   89  70  53 S6        29.86S HX  94
HASTINGS       MOSUNNY   91  70  49 S3        29.86F HX  96
KEARNEY        PTSUNNY   88  66  48 S6        29.88R HX  90
ORD            PTSUNNY   86  69  56 NE7       29.85R HX  90
YORK           MOSUNNY   88  77  70 SW3       29.85S HX 100
AURORA         MOSUNNY   88  75  65 SW6       29.85F HX  97
LEXINGTON      PTSUNNY   88  48  24 W14G20    29.88F
HOLDREGE       MOSUNNY   90  62  39 CALM      29.89R HX  91
HEBRON         SUNNY     94  65  38 S7        29.84S HX  96

...NEBRASKA PANHANDLE...

CITY           SKY/WX    TMP DP  RH WIND       PRES   REMARKS
CHADRON        SUNNY     93  57  29 NE14      29.95F HX  91
ALLIANCE       PTSUNNY   92  49  22 W17       29.97F
SCOTTSBLUFF    PTSUNNY   91  51  25 NE8       29.96F
SIDNEY         PTSUNNY   90  47  22 SE14      30.00F

...WESTERN AND NORTH CENTRAL NEBRASKA...

CITY           SKY/WX    TMP DP  RH WIND       PRES   REMARKS
VALENTINE      NOT AVBL
AINSWORTH      SUNNY     88  60  39 NE7       29.94S
ONEILL         SUNNY     88  58  35 NE15      29.89S
BROKEN BOW     TSTM      78  61  55 N12       29.91R
IMPERIAL       PTSUNNY   97  49  19 SE7       29.92F HX  94
NORTH PLATTE   PTSUNNY   78  55  44 SE12      29.93S
MCCOOK         MOSUNNY   99  50  19 E9        29.88S HX  96

...EASTERN NEBRASKA...

CITY           SKY/WX    TMP DP  RH WIND       PRES   REMARKS
NORFOLK        SUNNY     92  60  34 NE9       29.83F HX  91
TEKAMAH        SUNNY     91  76  61 NW9       29.80S HX 103
COLUMBUS       CLOUDY    91  73  55 N3        29.81S HX 100
ALBION         SUNNY     88  69  53 NE10      29.85S HX  93
OMAHA EPPLEY   MOSUNNY   95  72  47 W12       29.78R HX 103
OFFUTT AFB     SUNNY     93  74  53 SW10      29.78F HX 102
MILLARD        SUNNY     94  75  55 SW10      29.78F HX 105
LINCOLN        SUNNY     95  71  45 SW13      29.82F HX 102
NEBRASKA CITY  SUNNY     90  69  50 SW9       29.83F HX  94
BEATRICE       SUNNY     93  70  46 SW5       29.84S HX  99
FALLS CITY     SUNNY     91  74  57 SW8       29.83F HX 100

...NORTHERN KANSAS...

CITY           SKY/WX    TMP DP  RH WIND       PRES   REMARKS
GOODLAND       SUNNY     94  46  19 VRB7      29.96F HX  90
HILL CITY      SUNNY     97  63  32 S8        29.88F HX  98
NORTON         CLEAR     93  54  26 CALM      29.88R HX  91
PHILLIPSBURG   SUNNY     99  63  30 S6        29.87R HX 100
SMITH CENTER   SUNNY     97  61  30 S6        29.87R HX  97
HAYS           MOSUNNY   93  63  36 SE10      29.87F HX  94
RUSSELL        MOSUNNY   95  64  35 VRB5      29.85F HX  97
CONCORDIA      MOSUNNY   96  63  33 CALM      29.85F HX  97
SALINA         MOSUNNY   96  69  41 S15G24    29.85F HX 102
TOPEKA         SUNNY     92  69  47 SW8       29.85F HX  97



USA.gov is the U.S. government's official web portal to all federal, state and local government web resources and services.